Temp
68 70 73 74 74 74 73 73 73 74 74 75 75 75 75 75 75 75 75 75 76 77 77 76 75 75 75 74 74 73 73 72 72 73 74 75 77 77 76 75 74 75 75
69 70 72 73 74 73 74 74 74 74 75 75 74 74 74 74 74 75 75 75 76 76 76 75 75 74 74 73 72 72 72 71 71 72 72 73 74 76 76 74 73 74 75
68 70 71 72 73 74 74 74 75 75 75 75 75 74 74 74 74 74 74 74 75 76 76 75 74 73 73 72 71 71 71 71 70 70 70 67 70 75 76 74 74 74 75
69 69 70 72 73 74 74 74 74 75 75 74 74 74 74 74 74 74 73 73 74 75 75 74 73 72 71 70 70 70 70 70 69 69 65 67 70 75 76 75 74 74 74
69 69 70 71 72 73 73 73 73 73 73 73 73 74 73 73 73 73 72 72 74 74 74 73 73 71 70 69 69 69 69 69 68 65 63 66 68 72 76 75 74 73 73
68 68 69 70 71 72 73 73 73 72 72 72 72 73 73 73 73 72 72 72 73 73 73 72 71 70 69 68 68 68 68 68 66 61 63 65 67 73 75 74 73 72 72
66 67 68 69 71 72 73 72 72 71 71 71 72 72 72 72 72 71 71 71 71 72 71 71 70 69 68 68 68 67 67 66 62 61 63 64 66 73 75 75 73 72 72
65 66 67 70 70 71 71 71 70 70 70 70 71 71 72 71 71 70 70 70 70 70 70 69 69 69 68 68 68 67 66 66 63 62 63 64 68 72 75 74 72 71 71
64 63 64 66 68 69 69 69 68 69 69 69 70 70 70 69 69 69 69 70 70 70 70 69 68 68 68 68 67 66 65 65 60 61 65 63 68 72 74 73 72 72 71
61 62 62 63 63 63 64 67 67 68 68 68 69 69 68 68 68 69 68 69 69 69 69 69 68 68 67 66 66 65 65 64 59 61 61 62 69 72 73 73 72 71 71
62 61 61 61 62 62 62 66 67 68 68 68 68 67 65 63 64 64 66 68 69 69 69 68 68 67 66 64 64 64 64 59 59 60 59 64 69 72 73 73 72 71 71
60 61 61 61 61 61 67 63 62 64 63 63 64 64 63 62 62 65 65 67 68 68 67 66 66 65 63 59 59 61 59 60 59 60 60 65 69 72 73 73 72 71 71
62 62 61 61 61 61 64 61 61 61 61 62 63 62 62 62 61 61 60 60 59 63 59 60 59 59 59 58 58 58 58 58 58 59 60 64 67 71 73 73 72 72 71
62 63 63 62 61 60 61 61 61 61 61 60 61 62 60 59 59 59 60 59 58 58 57 57 56 57 57 58 58 58 58 58 58 58 59 62 64 68 71 73 73 73 72
62 64 63 62 61 61 61 60 60 60 61 61 61 62 61 59 59 58 58 57 56 56 55 55 55 56 56 57 57 57 57 57 58 57 57 61 62 65 68 70 72 73 73
64 64 64 63 62 62 60 60 59 60 60 61 62 62 61 59 58 57 56 56 55 55 55 54 54 54 53 54 55 55 56 56 56 57 57 56 60 62 64 66 68 69 70
65 64 63 62 62 60 60 60 60 61 63 62 62 61 61 60 58 57 55 54 54 54 54 53 53 53 52 54 53 54 54 54 54 55 55 55 55 57 60 61 63 65 66
64 62 62 64 60 59 59 60 61 61 58 58 58 58 59 58 57 55 54 52 53 53 52 51 51 52 51 50 50 51 51 52 52 52 53 53 52 54 54 58 59 59 61
61 60 60 61 60 59 60 57 57 58 56 55 56 56 56 56 57 56 53 52 53 54 54 54 52 49 48 48 50 50 49 49 49 53 51 51 51 51 52 54 55 56 57
58 59 60 60 60 58 58 58 57 56 55 55 54 56 59 58 58 55 55 55 53 52 49 50 49 49 47 46 50 50 48 48 48 47 48 51 49 48 49 49 49 51 54
57 59 60 60 59 59 57 55 54 52 52 52 54 56 55 55 54 52 50 49 49 49 47 48 46 45 45 44 43 44 45 46 46 46 46 46 46 47 47 47 47 48 49
55 57 57 56 56 56 56 54 53 51 50 51 51 51 52 51 51 51 49 48 47 47 45 44 43 42 43 43 41 40 38 42 43 47 44 45 41 43 45 46 46 46 47
53 54 56 57 57 56 55 53 52 51 50 50 49 48 49 50 50 49 48 47 45 45 43 42 42 41 39 41 41 40 36 34 37 42 42 41 41 41 41 42 44 45 46
52 52 54 55 55 55 54 54 52 50 49 48 48 47 48 49 48 48 46 45 43 43 42 41 43 40 39 38 40 43 40 38 34 34 39 40 40 42 40 40 40 42 45
52 51 53 54 54 53 53 52 50 49 48 49 48 48 47 46 46 46 45 43 43 43 42 41 40 39 39 38 37 37 37 36 35 36 34 39 38 40 40 39 39 40 43
52 51 53 55 53 53 51 51 50 50 49 47 47 46 45 43 43 44 45 43 42 42 41 40 39 38 38 37 37 41 40 38 38 37 35 37 37 38 39 39 39 39 40
MSLP
1016.98 1016.94 1017.09 1017.18 1017.36 1017.59 1017.90 1017.95 1018.08 1018.18 1018.30 1018.65 1018.81 1018.92 1019.14 1019.24 1019.42 1019.67 1019.77 1019.80 1019.88 1019.94 1020.07 1020.29 1020.24 1020.18 1020.16 1020.08 1020.13 1019.96 1019.95 1019.84 1019.70 1019.72 1019.62 1019.39 1019.38 1018.96 1019.07 1019.29 1019.14 1019.14 1019.39
1016.69 1017.16 1017.33 1017.26 1017.46 1017.65 1017.94 1018.12 1018.25 1018.43 1018.71 1018.84 1019.07 1019.20 1019.38 1019.61 1019.73 1020.04 1019.94 1019.97 1020.12 1020.19 1020.25 1020.28 1020.38 1020.31 1020.30 1020.28 1020.32 1020.28 1020.20 1020.16 1020.01 1019.99 1019.75 1019.70 1019.44 1019.29 1019.39 1019.41 1019.55 1019.27 1019.27
1016.86 1017.25 1017.52 1017.57 1017.73 1017.90 1018.09 1018.21 1018.51 1018.69 1018.89 1019.09 1019.39 1019.56 1019.69 1019.85 1020.10 1020.20 1020.29 1020.34 1020.37 1020.40 1020.54 1020.50 1020.49 1020.57 1020.60 1020.71 1020.57 1020.58 1020.43 1020.41 1020.08 1019.98 1020.02 1019.98 1019.67 1019.54 1019.62 1019.49 1019.54 1019.56 1019.53
1017.21 1017.58 1017.67 1017.72 1017.89 1018.08 1018.45 1018.46 1018.75 1018.86 1019.17 1019.38 1019.57 1019.72 1019.97 1020.09 1020.31 1020.32 1020.29 1020.33 1020.38 1020.56 1020.56 1020.62 1020.62 1020.74 1020.76 1021.15 1020.97 1020.90 1020.84 1020.61 1020.31 1020.09 1020.03 1020.07 1019.95 1019.75 1019.67 1019.70 1019.69 1019.64 1019.73
1017.63 1017.89 1018.04 1018.07 1018.07 1018.32 1018.50 1018.64 1018.98 1019.20 1019.34 1019.56 1019.86 1019.97 1020.09 1020.27 1020.29 1020.40 1020.54 1020.61 1020.67 1020.77 1020.79 1020.95 1021.02 1021.25 1021.12 1021.41 1021.40 1021.27 1021.13 1020.93 1020.73 1020.54 1020.41 1020.16 1020.11 1019.96 1019.88 1019.98 1020.05 1019.94 1019.80
1018.08 1018.14 1018.35 1018.32 1018.28 1018.43 1018.57 1019.05 1019.23 1019.39 1019.59 1019.96 1020.06 1020.15 1020.38 1020.60 1020.69 1020.78 1020.80 1020.95 1020.91 1021.08 1021.05 1021.18 1021.20 1021.39 1021.57 1021.60 1021.62 1021.53 1021.37 1021.20 1021.01 1020.80 1020.56 1020.32 1020.26 1020.14 1019.93 1020.04 1020.20 1020.26 1020.24
1018.46 1018.44 1018.44 1018.49 1018.50 1018.57 1018.92 1019.27 1019.46 1019.68 1019.83 1020.17 1020.32 1020.49 1020.65 1020.62 1020.76 1020.96 1021.04 1021.11 1021.32 1021.44 1021.38 1021.49 1021.58 1021.66 1021.77 1021.68 1021.82 1021.73 1021.55 1021.37 1021.37 1021.21 1020.86 1020.75 1020.52 1020.25 1020.02 1019.95 1020.08 1020.21 1020.25
1018.71 1018.70 1018.72 1018.77 1018.80 1018.93 1019.23 1019.52 1019.78 1020.01 1020.16 1020.35 1020.51 1020.61 1020.76 1020.91 1020.98 1021.18 1021.33 1021.36 1021.51 1021.71 1021.66 1021.74 1021.74 1021.79 1021.95 1021.95 1022.00 1021.85 1021.75 1021.59 1021.49 1021.39 1021.05 1020.94 1020.71 1020.46 1020.21 1020.11 1020.10 1020.10 1020.17
1018.90 1018.97 1019.03 1019.06 1019.04 1019.16 1019.44 1019.59 1019.89 1020.08 1020.26 1020.49 1020.61 1020.73 1020.85 1021.07 1021.12 1021.26 1021.45 1021.52 1021.60 1021.72 1021.85 1021.93 1021.97 1021.81 1021.89 1021.96 1022.06 1022.06 1021.89 1021.82 1021.71 1021.59 1021.31 1021.13 1020.93 1020.73 1020.46 1020.37 1020.26 1020.13 1020.20
1019.23 1019.28 1019.23 1019.23 1019.25 1019.45 1019.49 1019.73 1020.08 1020.32 1020.64 1020.86 1020.90 1020.96 1020.93 1021.30 1021.53 1021.58 1021.69 1021.64 1021.52 1021.69 1021.92 1022.11 1022.09 1021.91 1021.89 1022.03 1022.05 1021.99 1022.00 1021.99 1021.92 1021.73 1021.52 1021.28 1020.94 1020.70 1020.56 1020.50 1020.43 1020.35 1020.23
1019.47 1019.31 1019.30 1019.48 1019.46 1019.60 1019.81 1019.94 1020.03 1020.27 1020.55 1020.74 1020.89 1021.20 1021.52 1021.52 1021.52 1021.66 1021.81 1021.81 1021.72 1021.92 1021.85 1022.09 1022.10 1022.03 1021.98 1022.01 1022.03 1021.98 1021.93 1022.09 1022.05 1021.86 1021.62 1021.34 1021.11 1020.86 1020.60 1020.45 1020.44 1020.43 1020.34
1019.56 1019.28 1019.35 1019.46 1019.45 1019.81 1019.95 1020.21 1020.19 1020.45 1020.74 1020.86 1021.03 1021.29 1021.72 1021.65 1021.73 1021.71 1021.76 1021.87 1021.98 1022.02 1022.03 1022.21 1022.12 1022.09 1022.13 1022.22 1022.26 1022.19 1022.21 1022.09 1021.98 1021.86 1021.57 1021.22 1021.01 1020.81 1020.65 1020.53 1020.35 1020.29 1020.26
1018.94 1019.22 1019.23 1019.34 1019.76 1020.11 1019.94 1020.16 1020.33 1020.61 1021.04 1021.17 1021.33 1021.40 1021.69 1021.71 1021.79 1021.82 1021.86 1022.01 1022.27 1022.21 1022.28 1022.25 1022.32 1022.40 1022.51 1022.59 1022.47 1022.46 1022.45 1022.32 1022.18 1021.93 1021.64 1021.33 1021.11 1020.81 1020.48 1020.30 1020.24 1020.17 1019.96
1019.02 1018.94 1019.21 1019.40 1019.92 1020.08 1020.20 1020.37 1020.69 1020.86 1021.14 1021.32 1021.43 1021.55 1021.73 1021.77 1021.72 1021.65 1021.83 1022.04 1022.18 1022.39 1022.50 1022.42 1022.57 1022.59 1022.67 1022.67 1022.62 1022.59 1022.52 1022.40 1022.19 1021.92 1021.63 1021.25 1020.97 1020.72 1020.46 1020.17 1019.95 1019.87 1019.79
1018.96 1018.84 1019.25 1019.47 1020.09 1020.43 1020.77 1020.89 1020.98 1021.11 1021.42 1021.59 1021.64 1021.27 1021.59 1021.60 1021.68 1021.71 1021.84 1022.17 1022.36 1022.55 1022.64 1022.60 1022.62 1022.67 1022.70 1022.68 1022.63 1022.62 1022.46 1022.31 1022.16 1021.94 1021.69 1021.25 1020.92 1020.66 1020.41 1020.09 1019.77 1019.53 1019.36
1018.56 1018.79 1019.33 1019.93 1020.37 1020.86 1021.16 1021.43 1021.46 1021.50 1021.51 1021.55 1021.45 1021.32 1021.48 1021.57 1021.84 1022.23 1022.40 1022.45 1022.59 1022.77 1022.87 1022.84 1022.86 1022.99 1023.04 1022.87 1022.74 1022.64 1022.47 1022.27 1022.15 1021.98 1021.67 1021.36 1020.98 1020.63 1020.35 1020.10 1019.80 1019.47 1019.16
1018.46 1019.10 1019.62 1019.86 1020.48 1021.11 1021.42 1021.61 1021.65 1021.78 1021.38 1021.32 1021.42 1021.56 1021.66 1021.83 1022.06 1022.32 1022.60 1022.94 1023.04 1022.97 1023.05 1023.09 1023.09 1023.02 1023.01 1022.88 1022.78 1022.58 1022.42 1022.18 1022.09 1022.03 1021.81 1021.44 1021.11 1020.77 1020.52 1020.23 1019.88 1019.54 1019.22
1018.58 1019.22 1019.73 1020.00 1020.77 1021.36 1021.64 1022.24 1022.10 1021.97 1021.70 1022.05 1021.86 1021.79 1021.91 1022.15 1022.16 1022.53 1022.98 1023.09 1023.00 1023.22 1023.30 1023.23 1023.36 1023.32 1023.31 1023.36 1023.14 1022.79 1022.48 1022.19 1022.09 1022.09 1021.99 1021.80 1021.54 1021.25 1020.95 1020.65 1020.40 1020.10 1019.69
1018.88 1019.60 1020.25 1020.64 1021.33 1022.01 1021.53 1022.14 1022.91 1022.64 1022.48 1022.54 1022.31 1022.15 1022.42 1022.57 1022.52 1022.72 1023.00 1023.13 1023.51 1022.94 1023.80 1023.28 1023.48 1023.69 1023.58 1023.39 1023.23 1022.84 1022.44 1022.25 1022.21 1022.10 1022.08 1021.93 1021.84 1021.72 1021.48 1021.14 1020.79 1020.40 1019.99
1019.51 1019.82 1020.25 1020.99 1021.63 1021.81 1022.24 1022.74 1023.10 1022.94 1023.06 1022.62 1022.37 1022.65 1022.64 1022.72 1022.76 1022.92 1023.18 1023.39 1023.49 1023.48 1023.82 1023.79 1023.86 1023.71 1023.74 1023.78 1023.38 1022.97 1022.58 1022.05 1022.27 1022.37 1022.28 1022.08 1022.10 1022.05 1021.89 1021.53 1021.12 1020.68 1020.20
1020.52 1020.54 1020.94 1021.06 1021.69 1022.59 1023.28 1023.03 1023.13 1023.50 1023.41 1023.06 1022.94 1022.98 1023.10 1023.08 1023.28 1023.49 1023.72 1023.72 1023.70 1023.82 1024.07 1024.11 1024.21 1024.14 1023.94 1023.75 1023.51 1023.08 1022.48 1022.19 1022.34 1022.39 1022.26 1022.34 1022.34 1022.22 1022.09 1021.87 1021.56 1021.09 1020.48
1021.12 1021.09 1021.25 1021.44 1021.88 1022.25 1022.42 1022.59 1022.79 1023.10 1023.37 1023.43 1023.43 1023.35 1023.47 1023.64 1023.69 1023.66 1023.75 1023.90 1023.97 1024.08 1024.29 1024.40 1024.42 1024.43 1024.21 1023.96 1023.97 1023.54 1023.13 1022.74 1022.63 1022.32 1022.40 1022.55 1022.67 1022.45 1022.19 1021.95 1021.65 1021.30 1020.85
1021.59 1021.46 1021.67 1021.71 1021.96 1022.19 1022.41 1022.73 1023.10 1023.31 1023.36 1023.56 1023.80 1024.03 1024.02 1023.92 1023.88 1023.88 1023.93 1024.06 1024.27 1024.39 1024.55 1024.52 1024.44 1024.44 1024.45 1024.15 1024.12 1024.25 1023.88 1023.70 1023.47 1022.74 1022.74 1022.91 1022.83 1022.66 1022.36 1022.03 1021.55 1021.23 1020.89
1021.80 1021.77 1021.61 1021.91 1022.18 1022.33 1022.34 1022.72 1023.03 1023.45 1023.74 1023.92 1024.07 1024.29 1024.29 1024.11 1024.09 1024.13 1024.29 1024.47 1024.58 1024.57 1024.57 1024.48 1024.37 1024.49 1024.48 1024.52 1024.30 1024.19 1024.29 1024.42 1024.20 1023.51 1023.29 1022.97 1022.78 1022.64 1022.45 1022.13 1021.74 1021.28 1020.88
1021.99 1022.28 1022.21 1022.28 1022.77 1022.90 1022.86 1023.00 1023.37 1023.62 1023.96 1024.15 1024.24 1024.30 1024.41 1024.50 1024.53 1024.52 1024.51 1024.52 1024.52 1024.55 1024.57 1024.58 1024.61 1024.63 1024.66 1024.73 1024.67 1024.54 1024.47 1024.38 1024.23 1024.13 1023.17 1023.08 1023.07 1022.62 1022.37 1022.06 1021.81 1021.39 1020.89
1022.42 1022.67 1022.39 1022.40 1023.11 1023.16 1023.39 1023.64 1023.86 1023.96 1024.17 1024.39 1024.48 1024.62 1024.74 1024.80 1024.76 1024.55 1024.38 1024.38 1024.39 1024.40 1024.42 1024.44 1024.48 1024.61 1024.66 1024.71 1024.68 1024.52 1024.47 1024.39 1024.08 1023.77 1023.51 1023.16 1022.95 1022.40 1022.14 1021.90 1021.59 1021.27 1020.89
Wind_Speed
4 5 8 10 12 12 11 12 14 14 15 14 15 15 15 14 13 12 11 12 12 12 11 11 11 11 12 13 12 12 12 12 12 12 11 9 8 10 10 6 7 6 7
8 5 8 10 13 12 12 13 14 14 15 16 15 15 14 13 13 12 12 11 11 11 10 10 10 11 12 13 12 12 13 13 12 12 11 7 7 6 6 6 6 5 7
8 6 6 10 12 13 14 14 15 15 15 16 15 14 13 12 11 10 10 9 10 10 9 10 11 12 13 13 12 11 11 11 12 12 11 5 3 4 5 7 7 5 4
7 4 5 11 13 13 13 15 14 15 15 14 14 13 12 11 10 10 9 7 9 9 8 8 9 10 11 11 11 11 12 12 12 12 5 4 5 7 6 5 6 7 5
6 5 6 10 13 14 14 14 14 13 13 12 11 12 11 10 10 9 9 8 9 9 9 9 10 11 11 11 12 12 12 12 12 9 6 5 3 5 4 4 3 4 5
5 5 7 10 12 13 13 13 13 12 12 10 10 10 10 9 9 9 8 8 9 8 9 10 10 10 9 9 10 10 11 12 11 7 6 6 4 7 9 6 1 4 4
5 5 6 9 11 12 13 13 11 11 10 9 9 8 9 9 9 8 8 8 8 8 9 9 9 8 7 7 7 8 8 9 6 6 5 6 6 9 10 8 7 5 5
6 5 5 9 10 11 11 10 10 9 9 9 8 8 8 8 7 7 7 7 7 6 7 7 7 6 6 7 6 6 6 7 6 5 5 4 9 13 12 11 10 10 9
5 5 5 5 7 9 10 10 10 9 9 9 8 8 7 7 7 6 6 6 5 5 5 5 6 7 7 7 7 8 7 6 5 4 5 3 7 8 10 10 12 12 12
3 5 5 5 5 5 5 8 8 8 8 8 7 7 7 6 5 5 4 3 3 3 5 6 7 8 8 9 8 8 7 6 4 5 4 3 8 9 9 7 8 10 12
2 4 4 5 5 5 4 5 8 9 8 7 6 5 5 3 3 2 2 2 3 4 6 7 8 8 9 8 8 8 6 2 3 3 3 8 9 9 10 10 8 9 11
6 6 5 5 5 5 3 4 5 4 3 3 3 3 3 2 1 2 1 3 4 6 6 7 7 8 7 4 4 8 3 5 3 4 3 8 9 10 9 10 10 11 11
7 4 6 4 4 5 4 3 2 2 1 2 3 3 3 2 1 1 0 2 2 4 2 4 4 4 5 4 4 4 5 5 3 3 6 12 13 13 12 11 10 12 12
7 7 6 6 5 4 1 3 3 3 3 2 3 3 2 2 3 3 2 0 1 2 3 3 3 3 4 5 5 5 5 4 3 3 5 12 13 15 16 17 15 12 12
6 6 6 6 3 1 3 2 0 2 2 2 3 4 3 3 2 1 2 2 3 2 3 3 3 4 4 4 3 3 4 5 5 3 3 12 13 15 16 18 19 19 16
7 7 4 4 5 4 3 4 3 3 3 3 4 3 4 1 1 2 3 4 4 3 2 3 3 4 4 4 4 5 5 4 5 5 4 5 10 12 13 15 16 18 20
4 2 6 7 7 7 6 4 4 3 2 1 2 2 3 4 4 4 4 4 3 4 5 4 4 3 4 4 5 5 4 6 4 5 4 4 6 12 15 16 16 17 17
5 8 8 8 8 8 7 7 5 6 4 5 4 4 6 5 6 5 4 4 4 4 4 4 4 3 4 4 4 4 4 4 5 5 4 4 5 6 10 19 20 19 19
9 11 10 9 7 6 8 9 4 6 5 4 4 5 6 6 7 6 5 4 4 4 3 4 3 2 2 3 4 4 4 4 3 3 5 5 6 6 6 14 19 18 21
11 12 11 8 10 11 6 3 2 3 3 3 5 5 6 5 5 5 4 4 4 4 3 3 3 3 1 2 6 4 5 4 2 3 3 4 4 5 6 8 7 9 19
9 11 7 8 5 6 3 2 3 2 1 3 4 6 5 6 6 6 4 4 4 5 4 5 2 2 2 3 1 3 4 1 4 2 2 3 6 5 5 6 5 6 7
7 8 6 7 5 5 3 3 3 3 2 3 2 5 6 6 5 5 5 5 5 4 5 4 4 3 2 3 3 2 3 4 3 4 2 3 5 3 6 7 6 7 6
6 8 7 7 7 5 6 4 3 3 2 3 3 3 3 4 5 5 5 5 5 4 3 2 3 4 3 2 3 1 4 2 3 3 3 2 3 3 4 5 7 7 6
4 4 7 6 6 4 3 3 3 3 2 2 2 2 2 5 5 5 5 5 3 2 3 2 2 1 2 2 3 1 1 1 2 5 2 5 4 4 4 3 5 6 5
3 2 3 5 5 4 4 4 3 3 2 1 1 3 2 3 4 3 3 3 2 1 1 2 3 3 1 1 1 2 2 2 2 4 8 6 3 4 5 4 3 4 5
3 2 4 6 4 5 5 4 4 5 4 3 2 1 1 1 1 3 3 1 1 1 1 2 2 3 3 2 2 3 3 3 3 3 4 6 8 4 3 4 4 4 4
Wind_Direction
168 153 150 139 137 134 127 119 112 108 106 105 99 95 93 90 88 86 81 79 75 74 71 66 63 62 56 52 44 36 33 23 18 12 12 1 13 46 60 58 57 63 53
122 141 151 137 137 131 126 118 112 108 105 101 99 96 92 90 86 84 79 84 86 79 71 63 61 61 60 54 44 29 23 19 13 5 5 351 351 27 43 49 61 51 46
124 141 140 127 130 130 124 119 113 111 109 106 103 99 96 94 92 89 84 81 89 80 69 60 57 52 50 46 44 31 23 16 10 7 8 353 315 348 41 33 30 49 45
115 113 126 125 125 120 119 116 115 116 115 114 112 108 109 106 105 103 100 105 103 99 88 76 64 56 50 43 42 34 23 14 11 3 6 3 349 340 14 37 33 22 27
106 116 127 113 108 113 115 115 120 122 118 114 117 118 117 122 119 111 103 91 98 91 85 75 65 57 54 46 41 34 22 16 14 6 346 350 351 331 9 17 8 12 0
112 105 116 115 113 114 112 119 121 118 115 121 122 127 129 125 114 105 97 93 92 88 84 80 76 68 58 49 43 34 20 12 11 2 352 349 0 331 340 339 33 348 348
116 117 124 122 117 118 125 125 121 122 121 124 128 129 134 124 113 105 98 91 86 85 84 80 74 67 59 56 45 35 25 15 21 357 354 357 349 336 328 328 340 355 333
131 130 129 122 121 123 128 125 122 123 129 131 138 140 131 117 109 105 94 86 86 78 74 72 68 56 37 31 33 29 25 25 25 9 9 6 347 349 349 354 352 353 348
136 129 128 133 133 133 134 133 137 141 143 148 151 138 127 117 109 108 100 96 79 62 51 49 44 39 29 24 24 26 12 26 27 13 360 351 337 337 345 350 348 346 343
124 154 149 135 130 141 135 139 145 151 156 153 150 144 122 118 112 96 86 81 77 53 28 15 14 16 13 5 6 17 15 13 5 355 350 330 331 326 322 321 327 328 327
167 173 169 157 156 142 144 172 158 156 159 162 153 131 110 106 118 85 32 7 3 351 5 0 356 355 353 354 351 357 13 359 343 326 321 313 317 312 308 309 311 307 307
197 203 186 180 166 164 167 161 156 157 160 160 157 150 146 139 163 200 256 333 334 342 354 352 348 346 350 350 345 351 345 331 329 314 303 303 308 305 296 293 295 296 296
192 193 193 175 182 186 178 169 142 114 145 173 186 179 183 160 221 249 340 28 6 352 352 352 356 5 4 0 350 345 336 334 326 316 313 310 308 301 289 285 273 275 283
191 204 184 189 183 213 178 156 159 171 180 198 212 202 192 213 235 239 218 178 53 2 1 29 37 26 25 12 1 346 347 332 319 308 307 309 305 303 299 299 292 278 267
196 207 209 172 174 333 340 359 186 239 246 238 237 213 202 206 219 176 174 102 64 40 39 30 31 40 40 29 28 16 0 354 341 329 319 320 315 317 313 307 301 297 292
194 209 168 113 85 64 23 352 313 291 270 263 260 264 231 177 102 17 45 57 58 48 44 61 57 46 31 9 12 2 355 346 330 330 321 325 329 330 327 321 316 311 302
198 158 106 103 96 79 65 25 10 339 2 317 331 5 49 49 60 74 63 51 40 49 53 40 31 35 41 3 357 343 338 333 343 339 346 341 344 353 359 357 345 331 323
143 108 91 92 95 81 61 35 20 10 28 358 31 61 65 53 75 70 69 52 54 49 38 51 27 11 24 357 332 318 319 329 340 4 16 13 9 17 15 18 12 8 355
113 109 97 90 77 86 72 73 11 32 26 6 46 63 59 57 74 82 76 71 44 73 23 31 16 38 326 333 307 295 315 312 344 32 16 36 36 25 10 2 359 356 352
91 99 97 92 89 67 72 95 29 30 30 50 61 61 70 74 78 81 73 54 49 51 30 23 356 337 317 335 301 314 297 285 99 58 26 37 41 31 14 1 349 344 345
69 85 86 97 103 124 181 141 77 110 341 54 65 74 79 69 63 69 66 57 39 49 36 26 347 344 307 321 292 270 279 199 130 41 48 53 23 12 12 358 345 339 334
89 98 97 105 119 156 158 159 151 158 91 95 72 59 64 68 58 65 59 49 43 49 37 27 34 335 303 17 339 278 344 323 2 337 72 62 29 360 5 357 344 336 335
116 117 125 130 141 136 122 107 75 59 42 41 31 34 34 64 60 65 62 62 53 51 35 359 4 14 326 327 25 285 337 300 339 344 48 64 36 19 334 338 342 335 337
134 136 127 139 134 130 134 111 131 153 162 207 146 144 70 46 53 58 66 69 73 55 22 339 14 15 30 340 335 40 236 225 291 302 333 336 327 343 324 325 326 327 328
102 156 91 81 57 45 59 85 100 97 81 96 72 94 66 56 60 76 99 110 86 40 18 12 352 336 321 271 224 329 332 324 243 271 307 307 339 307 311 311 300 307 318
58 95 116 105 76 76 75 74 95 89 74 56 26 61 107 156 175 186 179 182 200 214 241 252 278 299 298 295 282 284 255 260 276 258 276 292 294 267 275 285 293 300 308